GW4507 Weather Reports


Display with metric or nautical units.
time (UTC)temp
F
wind
direction
speed
MPH
gust
MPH
rain 1hr
in
rain 24hr
in
rain mn
in
humidity
%
barometer
mb
20260507083016 43 237 9.0 15.0 0.00 0.00 0.00 66 1012.2
20260507081520 44 257 11.0 17.0 0.00 0.00 0.00 66 1012.3
20260507080022 44 243 10.0 16.0 0.00 0.00 0.00 66 1012.5
20260507074506 44 242 7.0 15.0 0.00 0.00 0.00 66 1012.5
20260507073012 44 221 7.0 13.0 0.00 0.00 0.00 66 1012.7
20260507071518 44 236 7.0 15.0 0.00 0.00 0.00 66 1013.0
20260507070038 44 241 8.0 16.0 0.00 0.00 0.00 65 1013.0
20260507064523 44 232 8.0 19.0 0.00 0.00 0.00 64 1013.2
20260507063026 45 225 9.0 15.0 0.00 0.00 0.00 63 1013.2
20260507061514 45 207 8.0 17.0 0.00 0.00 0.00 62 1013.3
20260507060021 45 222 9.0 16.0 0.00 0.00 0.00 59 1013.5
20260507054526 45 237 8.0 15.0 0.00 0.00 0.00 57 1013.6
20260507053026 43 211 5.0 10.0 0.00 0.00 0.00 56 1013.8
20260507051526 41 203 1.0 4.0 0.00 0.00 0.00 55 1014.1
20260507050032 41 185 1.0 4.0 0.00 0.00 0.00 53 1014.2
20260507044522 40 170 1.0 4.0 0.00 0.00 0.00 51 1014.3
20260507043024 40 190 1.0 2.0 0.00 0.00 0.00 48 1014.6
20260507041526 40 136 0.0 2.0 0.00 0.00 0.00 46 1014.6
20260507040028 40 136 0.0 2.0 0.00 0.00 0.00 44 1014.7
20260507034522 40 136 1.0 2.0 0.00 0.00 0.00 43 1014.9
20260507033031 41 121 2.0 4.0 0.00 0.00 0.00 41 1014.9
20260507031532 41 223 0.0 1.0 0.00 0.00 0.00 40 1014.9
20260507030025 43 223 0.0 2.0 0.00 0.00 0.00 39 1015.0
20260507024529 45 223 1.0 3.0 0.00 0.00 0.00 36 1015.2
20260507023022 46 229 0.0 1.0 0.00 0.00 0.00 34 1015.1
20260507021526 48 229 0.0 3.0 0.00 0.00 0.00 32 1015.1
20260507020026 50 232 2.0 3.0 0.00 0.00 0.00 30 1015.1
20260507014539 51 257 3.0 7.0 0.00 0.00 0.00 29 1015.1
20260507013036 52 247 3.0 7.0 0.00 0.00 0.00 28 1015.0
20260507011529 54 259 3.0 9.0 0.00 0.00 0.00 25 1015.2
20260507010034 55 263 8.0 13.0 0.00 0.00 0.00 24 1015.1
20260507004527 56 261 9.0 16.0 0.00 0.00 0.00 23 1015.0
20260507003013 56 296 6.0 11.0 0.00 0.00 0.00 23 1015.1
20260507001515 56 252 5.0 12.0 0.00 0.00 0.00 23 1015.2
20260507000003 56 284 6.0 16.0 0.00 0.00 0.00 24 1015.5
20260506234506 58 239 6.0 13.0 0.00 0.00 0.00 24 1015.6
20260506233012 56 250 9.0 23.0 0.00 0.00 0.00 24 1015.5
20260506231519 58 249 8.0 15.0 0.00 0.00 0.00 22 1015.5
20260506230018 58 261 10.0 16.0 0.00 0.00 0.00 22 1015.7
20260506224504 57 251 4.0 10.0 0.00 0.00 0.00 23 1015.8
20260506223014 56 281 7.0 17.0 0.00 0.00 0.00 24 1016.1
20260506221521 58 236 5.0 16.0 0.00 0.00 0.00 24 1016.3
20260506220020 57 252 9.0 16.0 0.00 0.00 0.00 24 1016.5
20260506214521 55 329 7.0 19.0 0.00 0.00 0.00 25 1016.5
20260506213006 55 294 10.0 22.0 0.00 0.00 0.00 26 1016.8
20260506211519 58 295 6.0 19.0 0.00 0.00 0.00 25 1017.2
20260506210019 55 261 8.0 17.0 0.00 0.00 0.00 25 1017.3
20260506204523 55 283 10.0 15.0 0.00 0.00 0.00 26 1017.4
20260506203033 56 269 12.0 20.0 0.00 0.00 0.00 26 1017.8
20260506201522 54 252 4.0 18.0 0.00 0.00 0.00 27 1017.9
20260506200015 56 247 10.0 18.0 0.00 0.00 0.00 27 1018.2
20260506194521 53 236 5.0 15.0 0.00 0.00 0.00 28 1018.1
20260506193023 54 255 9.0 16.0 0.00 0.00 0.00 28 1018.4
20260506191524 54 234 6.0 19.0 0.00 0.00 0.00 28 1018.4
20260506190013 53 221 4.0 18.0 0.00 0.00 0.00 28 1018.6
20260506184529 54 317 6.0 14.0 0.00 0.00 0.00 29 1018.9
20260506183022 53 279 8.0 22.0 0.00 0.00 0.00 29 1019.2
20260506181525 52 273 5.0 14.0 0.00 0.00 0.00 32 1019.2
20260506180028 52 352 8.0 19.0 0.00 0.00 0.00 32 1019.4
20260506174529 50 319 9.0 18.0 0.00 0.00 0.00 32 1019.6
20260506173032 51 294 8.0 17.0 0.00 0.00 0.00 31 1019.6
20260506171527 51 304 9.0 17.0 0.00 0.00 0.00 31 1019.6
20260506170029 49 255 8.0 16.0 0.00 0.00 0.00 33 1019.9
20260506164526 51 294 14.0 19.0 0.00 0.00 0.00 33 1019.8
20260506163025 50 277 9.0 15.0 0.00 0.00 0.00 34 1019.8
20260506161527 49 273 7.0 17.0 0.00 0.00 0.00 35 1019.9
20260506160025 49 319 11.0 17.0 0.00 0.00 0.00 35 1019.9
20260506154527 48 318 10.0 16.0 0.00 0.00 0.00 35 1020.0
20260506153016 48 305 9.0 15.0 0.00 0.00 0.00 37 1020.0
20260506151523 47 312 7.0 14.0 0.00 0.00 0.00 37 1020.1
20260506150024 47 342 8.0 17.0 0.00 0.00 0.00 38 1020.1
20260506144508 47 322 6.0 14.0 0.00 0.00 0.00 39 1020.1
20260506143023 46 321 9.0 12.0 0.00 0.00 0.00 41 1020.0
20260506141516 46 320 9.0 13.0 0.00 0.00 0.00 40 1019.9
20260506140024 45 315 6.0 12.0 0.00 0.00 0.00 45 1019.7
20260506134524 44 274 7.0 11.0 0.00 0.00 0.00 49 1019.7
20260506133009 43 300 3.0 8.0 0.00 0.00 0.00 52 1019.8
20260506131516 42 296 5.0 9.0 0.00 0.00 0.00 55 1019.7
20260506130020 41 315 4.0 8.0 0.00 0.00 0.00 59 1019.7
20260506124524 39 311 4.0 8.0 0.00 0.00 0.00 61 1019.7
20260506123028 37 315 3.0 7.0 0.00 0.00 0.00 66 1019.5
20260506121513 34 233 0.0 2.0 0.00 0.00 0.00 73 1019.4
20260506120020 33 190 0.0 1.0 0.00 0.00 0.00 72 1019.3
20260506114521 34 190 0.0 0.0 0.00 0.00 0.00 72 1018.8
20260506113026 35 190 0.0 0.0 0.00 0.00 0.00 70 1018.6
20260506111526 35 190 0.0 1.0 0.00 0.00 0.00 68 1018.6
20260506110021 35 190 0.0 0.0 0.00 0.00 0.00 70 1018.5
20260506104522 35 190 0.0 4.0 0.00 0.00 0.00 70 1018.4
20260506103029 34 38 0.0 2.0 0.00 0.00 0.00 69 1018.4
20260506101540 34 38 0.0 0.0 0.00 0.00 0.00 67 1018.2
20260506100027 35 38 0.0 0.0 0.00 0.00 0.00 70 1018.1
20260506094522 35 38 0.0 0.0 0.00 0.00 0.00 67 1017.9
20260506093004 35 38 0.0 0.0 0.00 0.00 0.00 71 1017.8
20260506091504 35 38 0.0 0.0 0.00 0.00 0.00 68 1017.8
20260506090011 35 38 0.0 0.0 0.00 0.00 0.00 68 1018.0
20260506084516 35 38 0.0 0.0 0.00 0.00 0.00 65 1017.9